Location: Unspecified
(43.4354°N, 0.0000°E)
Time: 22:40:58
(UTC+00:00)

Courier 1B - Pass Details

Date: 25 June 2019
Orbit: 963 x 1209 km, 28.3° (Epoch: 19 July)

Event Time Altitude Azimuth Distance (km) Brightness Sun altitude
Rises 17:39:50 0° 230° (SW) 3,750 11.1 19.8°
Reaches altitude 10° 17:43:10 10° 215° (SW) 2,841 10.3 19.2°
Maximum altitude 17:48:08 21° 169° (S) 2,206 9.2 18.4°
Drops below altitude 10° 17:53:17 10° 124° (ESE) 2,977 9.5 17.5°
Sets 17:56:53 0° 109° (ESE) 3,983 10.1 16.8°
